DELTA 1 DEB

Satellite information

Favourite Embed

Satellite Type and Status

DEBRISIN ORBIT

Key statistics

Satellite DELTA 1 DEB at a glance.

Uptime

17639

Days in orbit

Revolutions

≈ 14.4

Per day

Orbit

LEO

Low Earth Orbit

Inclination

29.1

Latest

Satellite identification and parameters

Extended collection of information and parameters for DELTA 1 DEB.

Object identification

Identified? True

Debris? True

Object name: DELTA 1 DEB

International designator: 1977-065GB

Object number (NORAD): 19429

Object ID (CCSDS): 19429

Country: UNITED STATES OF AMERICA (US)

Current information (Y/N): Y

RCS size: SMALL

Orbital parameters

Period: 99.723 minutes

Inclination: 29.1031 deg

SMA: 7123.439 km

Apoapsis: 1016.635 km

Periapsis: 473.973 km

RAAN: 55.9404 deg

Eccentricy: 0.03808985

Argument of periapsis: 124.5996 deg

Mean anomaly: 239.1125 deg

Mean motion: 14.44003342 rev/day

Mean motion (dot): 0.00014903 rev/day2

B* drag term: 0.0017138635 1/REarth

Two-line elements (TLE)

Creation date: Oct. 28, 2025, 7:11 p.m.

Reference frame: TEME

Reference center: EARTH

Epoch: Oct. 28, 2025, 2:51 p.m. UTC

TLE line 0: 0 DELTA 1 DEB

TLE line 1: 1 19429U 77065GB 25301.61897833 .00014903 00000-0 17139-2 0 9996

TLE line 2: 2 19429 29.1031 55.9404 0380898 124.5996 239.1125 14.44003342853129

Live tracking on map

Real-time ground track for satellite DELTA 1 DEB.

In-orbit conjunctions

A list of the most updated potential collisions computed for object DELTA 1 DEB.

Target Orbit TCA Probability of collision Miss distance Type
THOR ABLESTAR DEB LEO 2024-12-02 13:10:16 0.0004945686 54.0 (m) DEBRIS

Associated space launch

Japanese meteorological satellite built by Hughes Space and Communications Company

DELTA 1 DEB was lifted into orbit during the mission ‘Delta 2914 | Himawari’, on board a Delta 2914 space rocket.

The launch took place on July 14, 1977, 10:39 a.m. from Space Launch Complex 17B.

For more information about the launch, click the button.

Launch to space Delta 2914 | Himawari
Delta 2914 | Himawari

Agency: N/A

Status: Launch Successful

Launch date: July 14, 1977, 10:39 a.m. UTC

Rocket: Delta 2914

Launch pad: Space Launch Complex 17B

Location: Cape Canaveral SFS, FL, USA

...

Latest news about this satellite

There are no fresh news available about this satellite. Check back as we update our databases every day.


Newsletter sign-up

Weekly statistics, charts and insights to help you stay on top of the space industry.